Lapse_Rate
4.9 4.7 4.4 4.7 5.3 5.1 5.1 5.0 5.0 5.0 4.9 4.7 4.8 4.7 6.0 5.6 5.6 6.0 6.1 6.3 6.4 6.2 6.3 6.5 6.6 6.5 6.2 5.9 5.9 6.0 6.2 6.2 6.2 6.1 6.1 5.9 6.0 6.0 6.1 6.2 6.3 6.3 6.2 5.7
4.6 4.2 4.7 5.2 5.2 4.9 4.9 4.6 4.6 4.8 4.8 4.7 4.6 4.6 5.4 6.2 5.6 5.9 6.2 6.3 6.1 6.1 6.2 6.3 6.3 6.1 6.1 6.1 6.0 5.9 5.8 5.8 5.9 5.9 5.9 5.9 5.9 5.9 6.0 6.1 6.3 6.1 6.0 5.9
4.6 4.3 5.1 4.9 5.0 4.8 4.3 4.2 4.3 4.8 5.0 4.9 4.4 4.7 5.2 5.9 6.1 6.1 6.2 6.3 6.2 6.2 6.3 6.1 6.0 6.0 6.0 5.9 5.9 5.9 5.9 5.8 5.7 5.7 5.7 5.7 5.8 5.9 6.0 6.1 6.1 6.4 6.2 6.2
4.4 4.2 4.7 4.4 4.2 4.6 4.2 4.9 5.0 4.8 4.7 4.7 4.0 4.5 4.4 4.8 6.1 6.3 6.2 5.9 5.9 6.1 6.1 6.3 6.2 6.0 5.9 5.8 5.7 5.7 5.7 5.8 5.8 5.8 5.7 5.7 5.7 5.7 5.9 6.0 6.0 6.2 6.4 6.4
4.2 4.4 4.6 4.5 4.5 4.7 4.5 4.8 5.1 4.9 4.5 4.2 4.2 3.6 4.1 4.9 6.2 6.7 6.7 5.8 6.3 6.4 6.3 6.0 5.9 5.8 5.6 5.5 5.6 5.7 5.8 5.9 5.9 5.8 5.6 5.6 5.5 5.4 5.4 5.4 5.5 5.9 6.3 6.6
4.7 4.4 4.4 4.6 4.8 5.0 4.8 4.6 4.8 4.7 4.7 4.3 4.4 4.3 4.9 4.6 5.8 6.1 6.4 6.6 6.1 6.0 6.0 5.8 5.5 5.3 5.3 5.4 5.3 5.3 5.3 5.3 5.6 5.6 5.4 5.3 5.0 4.9 4.9 5.1 5.4 5.7 6.1 6.5
4.5 4.2 4.4 4.6 4.6 4.6 4.7 4.6 4.9 4.9 4.8 4.8 4.9 4.7 4.8 4.5 5.6 6.1 5.5 5.8 6.0 6.0 5.7 5.4 5.1 5.0 4.8 4.8 4.8 4.9 5.0 5.1 5.1 5.2 5.2 5.0 5.0 4.9 4.9 5.1 5.4 5.7 6.1 6.5
5.3 5.0 4.5 4.5 4.7 5.0 5.3 5.4 5.9 6.2 5.9 6.5 5.3 4.5 4.7 5.0 5.5 6.1 6.3 6.3 6.1 5.8 5.6 5.1 5.0 4.9 4.8 4.7 4.6 4.5 4.4 4.5 4.5 4.7 4.9 5.0 5.1 5.2 5.3 5.2 5.5 5.9 6.4 6.8
5.7 5.7 5.8 5.4 5.7 5.7 5.5 5.3 6.1 6.3 5.8 5.6 5.6 4.2 4.5 4.9 5.7 5.8 6.0 6.0 5.8 5.7 5.6 5.3 5.2 5.2 5.1 4.9 4.7 4.6 4.5 4.4 4.4 4.7 4.9 5.1 5.3 5.5 5.6 5.8 6.1 6.3 6.6 6.9
6.1 6.1 5.8 6.0 5.8 5.7 5.9 6.1 6.1 6.0 6.5 6.2 6.0 5.6 5.4 5.1 5.8 5.9 5.9 5.9 5.8 5.7 5.6 5.6 5.6 5.5 5.3 5.1 5.1 5.1 5.2 5.4 5.5 5.8 5.9 6.0 6.0 6.1 6.3 6.4 6.6 6.8 6.9 7.0
6.3 6.3 6.0 6.1 5.6 6.1 5.8 5.7 6.1 6.6 6.7 7.1 6.6 6.4 5.4 5.7 6.1 6.3 6.1 6.0 6.1 6.0 5.7 5.4 5.4 5.5 5.6 5.6 5.6 5.7 5.9 6.1 6.3 6.4 6.6 7.0 7.1 7.1 7.1 7.1 7.2 7.2 7.1 7.1
6.6 6.5 6.3 6.2 6.1 6.5 6.6 6.9 6.8 7.0 6.6 7.0 7.5 5.8 5.5 5.6 5.8 6.1 6.4 6.5 6.5 6.3 5.9 5.5 5.5 5.7 5.8 6.1 6.4 6.6 6.7 6.7 6.8 6.9 7.0 7.0 6.9 6.9 6.9 7.0 7.0 7.2 7.2 7.2
6.6 6.5 6.5 6.2 5.8 5.8 5.9 6.1 6.3 6.8 7.4 6.8 6.8 5.7 6.2 6.0 6.0 6.4 6.4 6.6 6.5 6.3 6.2 6.0 5.8 6.1 6.4 6.4 6.5 6.7 6.8 6.9 6.9 6.8 6.8 6.8 6.8 6.9 7.0 7.1 7.0 7.0 7.0 7.0
7.2 7.1 7.1 7.2 7.1 7.0 6.4 6.6 6.6 6.9 7.1 6.4 6.9 5.9 6.1 5.9 6.1 6.5 6.8 7.1 7.0 6.8 6.6 6.6 6.8 6.8 6.6 6.7 6.6 6.7 7.0 6.9 6.9 6.8 6.8 6.8 6.8 6.8 6.7 6.7 6.8 6.9 7.0 7.1
7.3 7.0 7.0 7.2 7.3 7.6 6.9 6.7 7.1 7.1 6.4 6.8 6.1 6.5 6.2 6.7 6.5 6.8 6.8 6.3 6.7 6.8 7.2 7.2 7.2 7.1 7.0 6.7 6.5 6.6 6.7 6.8 6.9 6.9 7.0 6.9 6.9 6.9 7.0 7.0 6.9 6.9 6.9 6.9
7.5 7.2 7.2 7.0 7.2 7.0 7.1 7.1 6.7 6.6 6.7 7.1 6.5 6.3 6.3 6.5 6.9 6.4 7.1 7.3 7.2 7.2 7.4 7.4 7.2 7.0 6.7 6.5 6.5 6.5 6.7 6.7 6.9 7.0 7.1 7.1 7.1 7.1 7.1 7.1 7.0 7.0 6.9 6.9
7.9 7.5 7.3 7.2 7.3 7.0 7.2 6.7 6.5 6.6 7.0 7.0 6.9 6.9 7.9 7.2 6.9 7.0 7.5 7.6 7.5 7.3 7.3 7.1 7.1 6.9 6.7 6.5 6.5 6.5 6.6 6.7 6.8 6.8 6.9 7.1 7.2 7.1 7.1 7.1 7.1 7.1 7.1 7.2
7.9 7.5 7.5 7.4 7.1 7.4 7.5 7.7 7.9 7.7 7.7 7.8 7.6 7.4 7.7 7.5 7.3 7.1 7.3 7.3 7.2 7.2 7.3 7.2 7.1 7.0 6.9 6.7 6.6 6.6 6.6 6.7 6.7 6.9 7.0 6.9 6.9 7.0 7.0 7.0 7.0 7.0 7.0 7.1
7.6 7.5 7.4 7.6 7.5 7.7 7.8 7.9 7.9 7.9 8.1 8.1 8.1 8.1 8.0 7.9 7.1 7.2 7.4 7.3 7.4 7.2 7.1 7.0 7.0 6.9 6.7 6.7 6.6 6.6 6.7 6.7 6.8 6.9 6.8 6.7 6.7 6.8 6.9 6.9 7.0 7.0 6.9 6.8
7.5 7.7 7.5 7.5 7.6 7.7 7.9 8.2 8.2 7.8 7.4 8.3 8.0 8.2 8.4 8.1 7.5 8.0 8.2 8.1 7.8 7.5 7.2 7.0 6.9 6.8 6.7 6.7 6.6 6.7 6.7 6.8 6.9 6.8 6.7 6.7 6.7 6.8 6.8 6.8 6.8 6.8 6.8 6.8
7.3 7.6 7.2 7.2 6.9 7.1 7.5 7.7 7.5 7.0 7.7 8.4 8.2 8.6 8.9 8.6 8.4 8.3 8.1 8.2 7.9 7.5 7.1 6.9 6.8 6.8 6.6 6.6 6.7 6.7 6.8 6.8 6.8 6.7 6.7 6.6 6.6 6.6 6.6 6.6 6.5 6.5 6.4 6.3
7.7 6.9 7.0 7.1 7.1 7.4 7.6 7.6 7.5 7.9 8.3 8.2 8.3 8.4 8.5 8.8 8.4 8.0 8.2 8.2 7.8 7.5 7.2 6.9 6.6 6.6 6.6 6.5 6.5 6.6 6.7 6.6 6.5 6.4 6.5 6.5 6.6 6.6 6.5 6.4 6.3 6.2 6.0 6.0
7.0 7.1 7.3 7.4 7.8 8.0 8.0 7.8 7.9 7.9 8.3 8.2 8.3 8.0 8.2 8.4 8.3 8.2 8.1 8.1 7.9 7.5 7.1 6.7 6.6 6.6 6.6 6.6 6.5 6.4 6.4 6.3 6.3 6.3 6.3 6.3 6.3 6.3 6.2 6.1 5.9 5.7 5.7 5.6
7.4 7.6 7.5 7.5 7.6 7.6 7.6 7.8 8.0 8.1 8.3 8.3 8.1 8.1 7.9 7.7 7.6 7.8 7.9 8.0 7.8 7.4 7.2 6.8 6.6 6.5 6.5 6.7 6.6 6.4 6.4 6.3 6.2 6.1 6.1 6.1 6.2 6.1 5.9 5.7 5.5 5.3 5.2 5.1
7.7 7.7 7.8 8.0 8.1 8.2 8.3 8.3 8.3 8.4 8.4 8.1 7.8 7.6 7.3 7.4 7.5 7.6 7.7 7.6 7.3 7.0 6.9 6.7 6.6 6.5 6.3 6.2 6.1 6.1 6.0 6.0 6.2 6.3 6.3 6.3 6.0 5.7 5.5 5.3 5.2 5.1 4.9 4.7
8.1 8.1 8.0 8.0 8.6 8.3 8.2 8.2 8.1 7.9 8.0 7.5 7.5 7.3 7.1 7.0 7.1 7.0 7.0 6.8 6.3 6.1 6.1 6.0 6.1 6.2 6.3 6.3 6.2 6.0 6.0 6.0 5.9 5.8 5.6 5.5 5.4 5.3 5.2 5.0 4.8 4.5 4.3 4.1
Wind_Speed
14 10 15 18 18 5 7 8 7 5 5 5 13 14 15 13 13 15 16 16 16 15 11 7 7 8 9 9 10 10 11 10 7 7 7 8 9 8 10 13 17 16 16 18
7 18 14 12 14 14 7 7 6 2 4 4 9 14 15 19 15 18 18 17 14 8 5 4 7 9 10 11 11 11 11 10 8 6 6 7 6 7 8 9 14 18 16 16
15 2 17 13 11 14 14 14 11 8 3 6 10 14 9 8 8 12 14 12 6 2 1 4 7 9 10 12 12 12 12 12 8 9 7 7 6 7 7 7 8 9 15 16
13 7 13 14 16 14 16 10 6 5 3 4 4 7 8 8 12 8 8 10 5 6 5 5 6 9 10 11 11 12 13 13 12 9 4 7 6 6 6 7 7 7 13 14
7 11 11 15 14 13 6 11 11 8 8 9 12 4 5 4 14 16 14 5 7 7 7 6 6 6 8 10 10 11 13 15 15 13 12 4 4 5 5 6 8 9 9 12
12 0 9 14 6 15 10 8 4 2 2 8 14 11 9 12 12 12 11 7 10 8 7 6 6 6 7 9 10 11 13 15 15 14 14 12 10 8 7 9 7 7 6 6
9 13 3 3 10 5 14 14 4 6 6 8 0 13 18 7 13 13 10 11 10 8 6 5 6 6 8 11 12 11 13 14 14 14 14 14 12 11 9 9 7 8 7 8
12 8 15 11 14 9 18 14 6 7 7 5 3 11 6 12 13 3 3 13 11 9 7 6 6 7 8 9 11 11 12 13 14 13 13 12 13 8 7 9 7 6 7 8
12 14 4 11 7 16 8 13 13 1 2 3 7 8 10 10 13 11 11 13 11 9 7 6 5 5 7 8 9 10 10 10 12 12 11 12 11 12 11 11 10 8 9 9
6 4 2 13 6 10 10 10 5 6 8 9 11 15 13 10 16 17 12 13 11 9 8 6 5 5 5 6 6 8 10 10 11 11 10 9 10 11 10 10 12 12 11 11
7 3 3 7 15 20 8 12 7 5 9 9 8 9 10 18 16 16 15 17 15 12 9 7 5 4 4 4 6 6 10 10 10 10 10 10 10 11 11 10 10 11 12 12
15 6 9 13 1 9 19 17 19 9 9 11 12 15 7 7 11 12 14 16 14 12 10 7 5 3 2 4 6 6 8 9 10 11 11 11 11 12 12 12 13 12 12 12
15 7 5 5 5 2 11 17 18 18 4 14 11 14 8 11 11 11 16 16 14 12 11 8 6 4 2 3 5 5 7 8 9 10 10 10 11 12 12 12 13 13 13 13
19 10 14 17 15 11 10 17 20 18 8 20 18 27 22 10 10 11 14 15 15 13 12 9 7 4 2 2 3 5 7 8 8 8 9 10 11 12 12 12 13 14 14 14
12 8 17 21 17 9 18 21 20 22 28 19 24 25 26 21 16 15 17 15 16 15 13 10 8 5 2 1 3 5 5 6 7 8 9 10 11 12 12 13 14 14 14 14
9 7 10 15 20 20 17 13 20 28 27 24 29 26 23 19 16 16 18 20 18 16 14 11 8 5 3 1 3 4 5 6 7 8 9 10 11 11 12 13 13 13 14 14
13 11 7 15 17 17 13 25 25 21 25 25 25 31 27 24 15 17 18 20 22 18 16 13 10 6 4 2 2 2 4 5 6 7 9 10 11 11 11 11 12 12 13 13
12 15 11 11 3 16 16 20 25 29 26 24 23 26 28 21 18 15 15 19 18 18 16 12 9 7 5 3 1 1 3 4 6 7 8 9 10 10 11 11 11 12 11 12
13 12 8 10 14 14 4 10 16 18 26 27 25 29 28 17 1 12 10 13 15 16 13 10 8 7 6 4 2 2 3 4 5 7 7 8 9 9 10 11 12 11 11 11
7 8 10 5 7 15 13 17 0 5 13 20 23 25 27 11 11 21 17 15 16 15 13 12 10 9 7 4 3 4 4 3 5 6 7 7 8 9 9 10 11 11 10 10
4 6 11 13 8 3 10 4 4 9 11 11 14 22 19 14 15 4 17 15 16 14 14 12 11 9 7 4 4 4 3 4 5 6 7 7 8 9 9 10 9 10 10 10
13 8 7 7 7 12 12 6 11 13 2 2 4 7 11 10 11 15 16 16 15 15 13 11 10 9 7 5 4 4 4 4 5 7 7 7 8 7 8 10 10 11 10 10
8 12 12 9 5 2 9 7 6 5 4 2 3 3 8 12 10 15 16 16 14 14 11 9 9 9 7 5 4 4 3 5 6 6 6 7 8 7 8 9 9 8 9 9
7 6 8 10 10 9 10 5 5 8 7 4 3 6 10 12 15 15 13 13 12 11 10 9 9 8 6 4 4 4 4 5 6 6 7 7 7 8 8 6 7 7 8 8
6 9 8 6 8 4 12 13 5 7 6 9 9 7 10 16 15 15 13 12 10 9 9 8 8 7 6 4 4 4 5 5 6 6 6 6 6 7 8 7 7 7 8 10
7 9 6 9 3 5 8 3 13 12 10 11 13 12 8 11 15 14 11 11 10 10 9 8 7 6 5 3 3 3 4 4 5 5 5 6 6 6 6 7 7 9 11 15
Wind_Direction
182 202 203 198 205 215 217 216 209 179 185 218 242 257 269 265 262 266 263 259 260 270 306 330 4 1 350 351 334 318 300 290 276 253 245 242 246 237 242 239 239 236 232 225
184 220 211 201 203 208 196 200 204 200 182 242 271 269 272 268 255 246 255 261 269 277 301 20 19 13 10 5 359 352 333 312 291 259 251 251 256 248 253 251 240 243 233 225
210 284 205 188 187 201 225 236 244 256 325 236 296 282 257 261 266 248 248 252 267 271 83 35 35 31 20 18 9 4 0 354 333 295 270 254 251 259 261 254 254 249 239 233
229 198 195 196 204 199 225 208 205 190 270 257 50 295 255 255 272 255 232 231 231 155 116 73 46 37 30 21 17 18 17 16 6 360 281 263 266 270 280 280 278 264 249 244
191 189 190 210 208 197 212 163 197 220 247 281 251 253 248 262 253 251 248 206 159 138 127 108 78 52 36 25 22 25 28 29 24 26 20 352 313 308 305 304 295 282 268 254
230 61 216 215 180 192 147 117 91 135 228 252 232 215 237 217 238 232 244 176 153 145 122 102 85 67 48 34 28 29 29 31 28 30 31 31 28 20 24 6 347 323 300 288
192 212 182 172 175 153 172 171 184 200 204 244 201 213 252 208 248 236 198 172 158 144 130 103 75 56 40 32 28 27 25 28 23 25 29 27 24 27 30 16 3 7 4 354
200 202 195 183 203 184 198 188 189 203 213 232 152 227 246 224 230 202 184 177 156 145 131 101 65 54 43 34 29 25 26 24 19 20 19 21 21 20 19 16 9 10 360 354
203 218 203 183 182 185 183 216 216 291 80 246 213 240 268 233 224 210 158 169 164 155 147 120 94 63 46 36 30 25 18 19 18 15 13 16 16 16 8 6 4 360 1 351
189 196 169 181 184 221 203 168 180 203 224 234 236 245 240 194 214 211 198 192 178 159 149 134 113 84 59 43 31 29 21 18 11 7 8 7 8 9 5 2 359 355 350 354
169 218 128 157 203 195 188 204 214 215 223 230 252 244 237 229 204 206 208 197 183 173 170 164 145 109 70 49 35 29 18 13 10 6 2 3 4 3 357 357 356 350 344 349
200 207 212 203 118 254 216 211 203 204 203 240 256 257 170 218 225 228 206 185 177 174 170 164 152 144 88 43 32 28 14 11 5 1 360 1 0 360 358 357 353 349 348 348
177 204 185 203 222 232 222 215 221 229 263 218 221 257 239 215 226 206 192 182 176 173 173 167 167 164 114 46 30 24 15 9 4 359 358 0 2 358 355 352 349 349 348 347
168 206 219 228 230 177 211 212 213 216 222 235 230 248 248 218 219 197 192 189 180 182 181 181 175 160 117 60 32 26 16 9 2 359 0 2 360 355 351 348 349 351 351 353
181 222 220 241 249 240 227 215 211 215 228 230 246 242 252 251 232 205 196 183 187 188 186 185 179 173 154 78 41 23 15 6 360 2 7 2 356 353 351 352 351 348 350 349
197 232 214 242 240 233 242 234 219 216 227 235 244 253 253 258 257 218 195 193 195 195 190 183 177 170 159 80 32 13 10 6 1 7 6 360 356 353 354 350 347 344 344 344
181 217 190 239 241 238 233 228 229 228 227 229 235 244 252 253 230 214 209 198 201 195 187 182 175 171 159 130 35 24 12 5 10 7 4 1 355 351 350 347 345 344 341 337
191 206 221 239 164 233 239 234 223 228 232 232 243 251 253 249 249 230 214 200 195 184 175 170 165 161 152 138 96 83 40 27 17 11 2 357 351 346 345 345 345 344 340 338
227 193 225 231 232 256 264 233 209 208 233 234 236 243 252 249 243 253 212 197 179 164 157 156 153 149 145 142 130 121 72 40 22 10 1 352 345 339 340 343 342 341 338 338
220 219 215 205 228 236 245 261 99 189 244 243 228 240 246 164 221 248 166 157 148 144 147 150 149 143 142 127 134 124 83 48 20 358 346 339 341 335 332 342 337 335 333 335
205 225 230 254 267 252 255 228 177 207 243 275 210 224 238 201 232 95 148 151 144 143 144 144 148 141 132 128 143 119 93 49 360 341 336 335 337 330 333 333 331 333 335 334
186 189 205 222 234 253 198 108 203 224 239 291 261 254 199 183 127 143 149 145 143 139 142 147 140 131 118 112 126 110 78 11 350 339 331 336 331 332 336 334 333 336 338 337
213 210 217 208 224 162 192 221 174 156 201 243 268 275 146 140 149 151 148 147 146 143 139 140 137 127 114 102 90 109 33 358 342 334 330 330 334 339 337 338 336 333 338 337
230 216 234 240 226 222 221 238 223 195 193 170 169 165 161 152 152 150 146 145 144 144 140 139 140 136 121 99 81 53 18 359 342 333 337 338 337 337 341 336 339 336 337 335
242 160 202 248 268 294 254 236 211 190 151 140 129 156 159 151 153 150 147 144 147 142 135 145 144 139 122 103 76 40 12 1 347 335 335 339 335 339 337 339 333 333 330 330
188 206 214 240 259 232 268 278 167 172 174 165 141 128 130 156 147 144 145 145 149 149 144 138 132 125 114 100 89 39 9 5 349 338 344 343 334 337 334 328 324 322 324 328